TimeCST,TemperatureF,Dew PointF,Humidity,Sea Level PressureIn,VisibilityMPH,Wind Direction,Wind SpeedMPH,Gust SpeedMPH,PrecipitationIn,Events,Conditions,WindDirDegrees,DateUTC
12:15 AM,6.6,1.8,80,30.08,10.0,Calm,Calm,-,N/A,,Clear,0,2013-03-04 06:15:00
12:35 AM,7.3,1.4,77,30.08,10.0,Calm,Calm,-,N/A,,Clear,0,2013-03-04 06:35:00
12:55 AM,5.7,0.9,80,30.09,10.0,Calm,Calm,-,N/A,,Clear,0,2013-03-04 06:55:00
1:15 AM,5.7,1.0,81,30.10,10.0,Calm,Calm,-,N/A,,Clear,0,2013-03-04 07:15:00
1:35 AM,5.9,1.2,81,30.10,10.0,Calm,Calm,-,N/A,,Clear,0,2013-03-04 07:35:00
1:55 AM,6.4,1.6,80,30.10,10.0,Calm,Calm,-,N/A,,Clear,0,2013-03-04 07:55:00
2:15 AM,6.8,1.8,80,30.10,10.0,Calm,Calm,-,N/A,,Clear,0,2013-03-04 08:15:00
2:35 AM,7.3,2.5,81,30.10,10.0,Calm,Calm,-,N/A,,Clear,0,2013-03-04 08:35:00
3:15 AM,7.9,3.0,81,30.10,10.0,Calm,Calm,-,N/A,,Clear,0,2013-03-04 09:15:00
3:35 AM,8.2,3.6,81,30.10,10.0,Calm,Calm,-,N/A,,Clear,0,2013-03-04 09:35:00
3:55 AM,7.7,3.2,82,30.10,10.0,ENE,3.5,-,N/A,,Clear,60,2013-03-04 09:55:00
4:15 AM,9.1,4.1,80,30.10,10.0,Calm,Calm,-,N/A,,Clear,0,2013-03-04 10:15:00
4:35 AM,9.5,4.5,80,30.10,10.0,Calm,Calm,-,N/A,,Clear,0,2013-03-04 10:35:00
4:55 AM,9.3,4.5,81,30.09,10.0,East,4.6,-,N/A,,Clear,90,2013-03-04 10:55:00
5:15 AM,10.2,5.0,79,30.10,10.0,East,5.8,-,N/A,,Clear,90,2013-03-04 11:15:00
6:15 AM,11.1,5.4,78,30.09,10.0,ENE,4.6,-,N/A,,Clear,70,2013-03-04 12:15:00
6:35 AM,11.8,5.9,77,30.09,10.0,East,3.5,-,N/A,,Clear,90,2013-03-04 12:35:00
6:55 AM,12.6,6.4,77,30.09,10.0,East,4.6,-,N/A,,Clear,80,2013-03-04 12:55:00
7:15 AM,13.6,7.5,77,30.10,10.0,East,3.5,-,N/A,,Clear,90,2013-03-04 13:15:00
7:35 AM,14.7,8.1,75,30.10,10.0,East,3.5,-,N/A,,Clear,90,2013-03-04 13:35:00
7:55 AM,15.8,8.6,73,30.10,10.0,East,4.6,-,N/A,,Clear,90,2013-03-04 13:55:00
8:15 AM,17.2,9.3,71,30.09,10.0,East,8.1,-,N/A,,Clear,80,2013-03-04 14:15:00
8:35 AM,19.2,10.6,69,30.09,10.0,East,6.9,-,N/A,,Clear,90,2013-03-04 14:35:00
8:55 AM,21.2,12.0,68,30.09,10.0,East,8.1,-,N/A,,Clear,90,2013-03-04 14:55:00
9:15 AM,22.8,13.1,66,30.09,10.0,East,9.2,-,N/A,,Clear,90,2013-03-04 15:15:00
9:35 AM,24.6,14.9,67,30.09,10.0,East,8.1,-,N/A,,Clear,80,2013-03-04 15:35:00
9:55 AM,26.6,16.5,66,30.08,10.0,East,8.1,-,N/A,,Clear,80,2013-03-04 15:55:00
10:15 AM,28.8,18.3,65,30.08,10.0,East,10.4,-,N/A,,Clear,90,2013-03-04 16:15:00
10:35 AM,30.0,19.4,65,30.08,10.0,East,9.2,-,N/A,,Clear,90,2013-03-04 16:35:00
10:55 AM,30.7,19.8,64,30.07,10.0,ESE,11.5,16.1,N/A,,Clear,120,2013-03-04 16:55:00
11:15 AM,31.5,19.4,61,30.07,10.0,ESE,13.8,17.3,N/A,,Scattered Clouds,110,2013-03-04 17:15:00
11:55 AM,31.8,19.0,59,30.06,10.0,East,10.4,-,N/A,,Scattered Clouds,100,2013-03-04 17:55:00
12:15 PM,32.0,19.4,60,30.06,10.0,East,8.1,-,N/A,,Scattered Clouds,100,2013-03-04 18:15:00
12:55 PM,33.1,19.4,57,30.04,10.0,ESE,11.5,-,N/A,,Scattered Clouds,110,2013-03-04 18:55:00
1:15 PM,33.6,19.2,56,30.03,10.0,ESE,9.2,-,N/A,,Scattered Clouds,110,2013-03-04 19:15:00
1:35 PM,32.9,21.0,62,30.03,10.0,East,8.1,-,N/A,,Scattered Clouds,80,2013-03-04 19:35:00
1:55 PM,32.9,21.7,64,30.03,10.0,East,10.4,-,N/A,,Mostly Cloudy,90,2013-03-04 19:55:00
2:15 PM,32.0,21.4,65,30.03,10.0,East,11.5,-,N/A,,Overcast,80,2013-03-04 20:15:00
2:35 PM,32.0,21.4,65,30.03,10.0,East,12.7,-,N/A,,Overcast,80,2013-03-04 20:35:00
2:55 PM,32.0,21.7,66,30.03,10.0,East,10.4,-,N/A,,Overcast,90,2013-03-04 20:55:00
3:15 PM,32.0,22.3,67,30.03,10.0,East,9.2,-,N/A,,Overcast,100,2013-03-04 21:15:00
4:15 PM,29.5,23.4,78,30.02,10.0,East,13.8,17.3,N/A,,Overcast,80,2013-03-04 22:15:00
4:35 PM,28.9,23.5,80,30.02,10.0,East,10.4,-,N/A,,Overcast,90,2013-03-04 22:35:00
4:55 PM,28.4,22.5,78,30.02,10.0,East,15.0,-,N/A,,Overcast,90,2013-03-04 22:55:00
5:15 PM,28.4,22.1,77,30.02,10.0,East,11.5,-,N/A,,Overcast,90,2013-03-04 23:15:00
5:35 PM,28.2,21.9,77,30.02,10.0,East,12.7,-,N/A,,Overcast,80,2013-03-04 23:35:00
6:15 PM,27.5,21.2,77,30.03,10.0,East,12.7,17.3,N/A,,Overcast,90,2013-03-05 00:15:00
6:55 PM,27.5,21.2,77,30.04,10.0,East,11.5,-,N/A,,Overcast,80,2013-03-05 00:55:00
7:15 PM,27.3,21.2,78,30.03,10.0,East,11.5,-,N/A,,Overcast,80,2013-03-05 01:15:00
7:35 PM,27.5,21.6,78,30.04,10.0,East,9.2,-,N/A,,Overcast,80,2013-03-05 01:35:00
7:55 PM,27.5,21.7,79,30.04,10.0,East,10.4,-,N/A,,Overcast,80,2013-03-05 01:55:00
8:35 PM,27.7,22.3,80,30.04,10.0,ENE,9.2,-,N/A,,Overcast,70,2013-03-05 02:35:00
8:55 PM,28.0,22.6,80,30.04,10.0,East,6.9,-,N/A,,Overcast,80,2013-03-05 02:55:00
9:15 PM,28.0,23.0,81,30.05,10.0,East,5.8,-,N/A,,Overcast,80,2013-03-05 03:15:00
9:35 PM,28.2,23.0,81,30.05,7.0,East,5.8,-,N/A,,Overcast,80,2013-03-05 03:35:00
9:55 PM,28.2,23.0,81,30.05,10.0,ENE,5.8,-,N/A,,Overcast,70,2013-03-05 03:55:00
10:15 PM,28.4,23.0,80,30.04,10.0,East,6.9,-,N/A,,Overcast,80,2013-03-05 04:15:00
10:35 PM,28.4,23.2,81,30.03,10.0,ENE,6.9,-,N/A,,Overcast,70,2013-03-05 04:35:00
10:55 PM,28.4,23.5,82,30.03,10.0,East,9.2,-,N/A,,Overcast,80,2013-03-05 04:55:00
11:15 PM,28.8,23.7,81,30.03,10.0,East,6.9,-,N/A,,Overcast,80,2013-03-05 05:15:00
11:35 PM,28.9,23.9,81,30.03,10.0,ENE,5.8,-,N/A,,Overcast,70,2013-03-05 05:35:00